Content
SEND FEEDBACK

Daily
Averages
Monthly
Summary
United States of America

ST. LOUIS, MISSOURI


Home > North America > United States > Missouri
Elevation: 163 meters     Latitude: 38 45N     Longitude: 090 22W

WEATHER
 
SELECT A DAY
Number of Records: 201,377;   Date Range: 1/1/95 - 12/23/14
 
SHARE

PRINT THIS DATA

[ ← Previous Day ]
WEATHER ALMANAC - 6 APRIL, 2013
[ Next Day → ]
[ °F ]   °C
Weather ElementAverageHighLow
Temperature18.6 °C23.3 °C (1:54 pm)12.2 °C (6:54 am)
Dewpoint1.8 °C4.4 °C (9:54 pm)-0.6 °C (11:54 am)
Humidity33.7 %47 % (4:54 am)22 % (3:54 pm)
Barometer1010.8 hPa1016.3 hPa (1:54 am)1005.8 hPa (5:54 pm)
Wind Speed16.1 km/h29.6 km/h (11:54 am)
Wind Gust55.5 km/h (12:54 pm)
Weather ElementAverage
Visibility16.1 km
Wind DirectionS (183.5 °)

Weather ElementTotal
Precipitation---
Heating Degree Days0.6 (Base 18.3)
Growing Degree Days7.8 (Base 10)
Averaged from 23 records on 6 April, 2013
WEATHER CONDITIONS BREAKOUT
WIND DIRECTION BREAKOUT
WEATHER BY HOUR - 6 APRIL, 2013
[ °F ]   °C
Local TimeTemperatureDewpointHumidityBarometerVisibilityWind DirectionWind SpeedGust SpeedPrecipitationEventsConditions
1:54 AM13.3 °C0.6 °C42 %1016.3 hPa16.1 kmSE (130°)9.3 km/hClear
2:54 AM13.3 °C0.6 °C42 %1015.6 hPa16.1 kmSSE (160°)11.1 km/hClear
3:54 AM12.8 °C1.1 °C45 %1015.2 hPa16.1 kmSSE (150°)9.3 km/hClear
4:54 AM12.8 °C1.7 °C47 %1014.9 hPa16.1 kmSSE (150°)5.6 km/hClear
5:54 AM12.8 °C1.7 °C47 %1014.6 hPa16.1 kmSouth (170°)11.1 km/hClear
6:54 AM12.2 °C1.1 °C47 %1014.9 hPa16.1 kmSSE (160°)5.6 km/hMostly Cloudy
7:54 AM15 °C1.1 °C39 %1014.6 hPa16.1 kmSouth (170°)14.8 km/hMostly Cloudy
8:54 AM15 °C1.1 °C39 %1014.9 hPa16.1 kmSouth (180°)13 km/hMostly Cloudy
9:54 AM17.2 °C1.7 °C35 %1013.5 hPa16.1 kmSouth (190°)16.7 km/h33.3 km/hMostly Cloudy
10:54 AM19.4 °C0.6 °C28 %1012.2 hPa16.1 kmSouth (170°)24.1 km/h38.9 km/hMostly Cloudy
11:54 AM21.7 °C-0.6 °C23 %1011.5 hPa16.1 kmSSW (200°)29.6 km/h51.8 km/hClear
12:54 PM22.2 °C0.6 °C24 %1010.5 hPa16.1 kmSouth (190°)24.1 km/h55.5 km/hMostly Cloudy
1:54 PM23.3 °C1.1 °C23 %1008.5 hPa16.1 kmSSW (200°)22.2 km/h48.1 km/hMostly Cloudy
2:54 PM23.3 °C1.1 °C23 %1007.5 hPa16.1 kmSSE (160°)25.9 km/h44.4 km/hClear
3:54 PM23.3 °C0.6 °C22 %1006.8 hPa16.1 kmSouth (190°)24.1 km/h46.3 km/hMostly Cloudy
4:54 PM23.3 °C1.1 °C23 %1006.1 hPa16.1 kmSouth (190°)13 km/h33.3 km/hScattered Clouds
5:54 PM23.3 °C2.2 °C25 %1005.8 hPa16.1 kmSSW (200°)20.4 km/h40.7 km/hScattered Clouds
6:54 PM22.8 °C3.3 °C28 %1006.1 hPa16.1 kmSW (220°)16.7 km/h37 km/hMostly Cloudy
7:54 PM21.7 °C3.3 °C30 %1006.8 hPa16.1 kmSSW (210°)14.8 km/h31.5 km/hClear
8:54 PM21.7 °C3.9 °C31 %1007.5 hPa16.1 kmSSW (210°)18.5 km/h31.5 km/hOvercast
9:54 PM20 °C4.4 °C36 %1008.1 hPa16.1 kmSW (220°)11.1 km/hPartly Cloudy
10:54 PM19.4 °C4.4 °C37 %1008.1 hPa16.1 kmSSW (200°)14.8 km/hClear
11:54 PM18.3 °C4.4 °C40 %1008.5 hPa16.1 kmSSW (200°)13 km/hOvercast
Hourly data recorded from KSUS, located 0 kilometers away from St. Louis, Missouri







STORIES FROM OUR PARTNERS